| time (UTC) | temp F | wind direction | speed MPH | gust MPH | rain 1hr in | rain 24hr in | rain mn in | humidity % | barometer mb |
| 20260904224536 | 68 | 130 | 4.0 | 7.0 | 0.00 | 0.00 | 0.00 | 45 | 1015.4 |
| 20260904223031 | 66 | 123 | 3.0 | 7.0 | 0.00 | 0.00 | 0.00 | 47 | 1015.5 |
| 20260904221526 | 64 | 65 | 3.0 | 7.0 | 0.00 | 0.00 | 0.00 | 48 | 1015.6 |
| 20260904220022 | 63 | 119 | 4.0 | 7.0 | 0.00 | 0.00 | 0.00 | 51 | 1015.8 |
| 20260904214519 | 62 | 118 | 2.0 | 5.0 | 0.00 | 0.00 | 0.00 | 52 | 1016.1 |
| 20260904213027 | 61 | 269 | 0.0 | 3.0 | 0.00 | 0.00 | 0.00 | 50 | 1016.1 |
| 20260904211513 | 60 | 227 | 1.0 | 5.0 | 0.00 | 0.00 | 0.00 | 52 | 1016.3 |
| 20260904210008 | 59 | 124 | 2.0 | 6.0 | 0.00 | 0.00 | 0.00 | 53 | 1016.4 |
| 20260904204505 | 58 | 15 | 1.0 | 3.0 | 0.00 | 0.00 | 0.00 | 55 | 1016.6 |
| 20260904203100 | 57 | 15 | 0.0 | 6.0 | 0.00 | 0.00 | 0.00 | 56 | 1016.6 |
| 20260904201605 | 56 | 101 | 2.0 | 5.0 | 0.00 | 0.00 | 0.00 | 60 | 1016.8 |
| 20260904200058 | 55 | 92 | 2.0 | 6.0 | 0.00 | 0.00 | 0.00 | 63 | 1016.8 |
| 20260904194547 | 54 | 146 | 1.0 | 5.0 | 0.00 | 0.00 | 0.00 | 66 | 1017.0 |
| 20260904193044 | 53 | 126 | 2.0 | 7.0 | 0.00 | 0.00 | 0.00 | 67 | 1017.0 |
| 20260904191541 | 51 | 101 | 2.0 | 5.0 | 0.00 | 0.00 | 0.00 | 71 | 1017.0 |
| 20260904190033 | 49 | 94 | 2.0 | 5.0 | 0.00 | 0.00 | 0.00 | 75 | 1017.0 |
| 20260904184530 | 48 | 65 | 2.0 | 5.0 | 0.00 | 0.00 | 0.00 | 77 | 1017.1 |
| 20260904183029 | 47 | 270 | 1.0 | 4.0 | 0.00 | 0.00 | 0.00 | 78 | 1017.1 |
| 20260904181534 | 46 | 232 | 1.0 | 3.0 | 0.00 | 0.00 | 0.00 | 81 | 1017.2 |
| 20260904180025 | 45 | 136 | 2.0 | 4.0 | 0.00 | 0.00 | 0.00 | 81 | 1017.1 |
| 20260904174528 | 45 | 269 | 1.0 | 3.0 | 0.00 | 0.00 | 0.00 | 80 | 1017.2 |
| 20260904173023 | 44 | 244 | 1.0 | 5.0 | 0.00 | 0.00 | 0.00 | 81 | 1017.2 |
| 20260904171521 | 44 | 181 | 0.0 | 3.0 | 0.00 | 0.00 | 0.00 | 82 | 1017.3 |
| 20260904170021 | 43 | 157 | 1.0 | 4.0 | 0.00 | 0.00 | 0.00 | 82 | 1017.3 |
| 20260904164520 | 43 | 201 | 0.0 | 2.0 | 0.00 | 0.00 | 0.00 | 81 | 1017.3 |
| 20260904163020 | 44 | 166 | 1.0 | 3.0 | 0.00 | 0.00 | 0.00 | 79 | 1017.2 |
| 20260904161519 | 44 | 79 | 1.0 | 4.0 | 0.00 | 0.00 | 0.00 | 79 | 1017.2 |
| 20260904160022 | 45 | 71 | 1.0 | 4.0 | 0.00 | 0.00 | 0.00 | 79 | 1017.3 |
| 20260904154520 | 44 | 174 | 1.0 | 3.0 | 0.00 | 0.00 | 0.00 | 80 | 1017.2 |
| 20260904153030 | 43 | 142 | 2.0 | 6.0 | 0.00 | 0.00 | 0.00 | 82 | 1017.2 |
| 20260904151511 | 42 | 107 | 3.0 | 5.0 | 0.00 | 0.00 | 0.00 | 80 | 1017.1 |
| 20260904150008 | 42 | 122 | 4.0 | 7.0 | 0.00 | 0.00 | 0.00 | 80 | 1017.3 |
| 20260904144508 | 42 | 119 | 3.0 | 5.0 | 0.00 | 0.00 | 0.00 | 81 | 1017.2 |
| 20260904143016 | 41 | 107 | 1.0 | 8.0 | 0.00 | 0.00 | 0.00 | 83 | 1017.2 |
| 20260904141509 | 42 | 76 | 5.0 | 8.0 | 0.00 | 0.00 | 0.00 | 83 | 1017.2 |
| 20260904140002 | 42 | 82 | 4.0 | 7.0 | 0.00 | 0.00 | 0.00 | 83 | 1017.4 |
| 20260904134501 | 42 | 87 | 3.0 | 9.0 | 0.00 | 0.00 | 0.00 | 83 | 1017.4 |
| 20260904133058 | 42 | 78 | 3.0 | 10.0 | 0.00 | 0.00 | 0.00 | 83 | 1017.3 |
| 20260904131605 | 42 | 46 | 3.0 | 8.0 | 0.00 | 0.00 | 0.00 | 82 | 1017.2 |
| 20260904130054 | 42 | 71 | 2.0 | 9.0 | 0.00 | 0.00 | 0.00 | 81 | 1017.1 |
| 20260904124551 | 43 | 86 | 5.0 | 7.0 | 0.00 | 0.00 | 0.00 | 80 | 1017.0 |
| 20260904123049 | 43 | 57 | 1.0 | 5.0 | 0.00 | 0.00 | 0.00 | 80 | 1017.0 |
| 20260904121548 | 43 | 42 | 2.0 | 5.0 | 0.00 | 0.00 | 0.00 | 79 | 1017.0 |
| 20260904120046 | 43 | 51 | 2.0 | 5.0 | 0.00 | 0.00 | 0.00 | 79 | 1016.7 |
| 20260904114547 | 43 | 96 | 2.0 | 5.0 | 0.00 | 0.00 | 0.00 | 79 | 1016.8 |
| 20260904113045 | 43 | 65 | 1.0 | 3.0 | 0.00 | 0.00 | 0.00 | 79 | 1016.8 |
| 20260904111541 | 44 | 17 | 0.0 | 4.0 | 0.00 | 0.00 | 0.00 | 78 | 1017.0 |
| 20260904110040 | 44 | 52 | 2.0 | 5.0 | 0.00 | 0.00 | 0.00 | 77 | 1017.0 |
| 20260904104538 | 44 | 63 | 3.0 | 8.0 | 0.00 | 0.00 | 0.00 | 77 | 1016.9 |
| 20260904103048 | 44 | 88 | 5.0 | 7.0 | 0.00 | 0.00 | 0.00 | 76 | 1016.7 |
| 20260904101539 | 45 | 63 | 3.0 | 4.0 | 0.00 | 0.00 | 0.00 | 76 | 1017.0 |
| 20260904100033 | 45 | 19 | 2.0 | 3.0 | 0.00 | 0.00 | 0.00 | 76 | 1017.0 |
| 20260904094535 | 45 | 100 | 2.0 | 5.0 | 0.00 | 0.00 | 0.00 | 74 | 1016.8 |
| 20260904093028 | 45 | 17 | 1.0 | 2.0 | 0.00 | 0.00 | 0.00 | 73 | 1017.0 |
| 20260904091526 | 46 | 17 | 1.0 | 3.0 | 0.00 | 0.00 | 0.00 | 73 | 1017.0 |
| 20260904090023 | 46 | 17 | 2.0 | 5.0 | 0.00 | 0.00 | 0.00 | 71 | 1016.7 |
| 20260904084521 | 46 | 17 | 3.0 | 5.0 | 0.00 | 0.00 | 0.00 | 71 | 1016.8 |
| 20260904083033 | 47 | 19 | 2.0 | 4.0 | 0.00 | 0.00 | 0.00 | 69 | 1016.7 |
| 20260904081515 | 47 | 58 | 3.0 | 7.0 | 0.00 | 0.00 | 0.00 | 69 | 1016.5 |
| 20260904080012 | 48 | 15 | 1.0 | 3.0 | 0.00 | 0.00 | 0.00 | 68 | 1016.6 |
| 20260904074511 | 48 | 15 | 1.0 | 5.0 | 0.00 | 0.00 | 0.00 | 64 | 1016.5 |
| 20260904073010 | 49 | 18 | 3.0 | 4.0 | 0.00 | 0.00 | 0.00 | 66 | 1016.8 |
| 20260904071510 | 49 | 22 | 1.0 | 4.0 | 0.00 | 0.00 | 0.00 | 67 | 1016.7 |
| 20260904070010 | 49 | 132 | 1.0 | 6.0 | 0.00 | 0.00 | 0.00 | 64 | 1016.7 |
| 20260904064509 | 50 | 114 | 2.0 | 4.0 | 0.00 | 0.00 | 0.00 | 60 | 1016.9 |
| 20260904063009 | 50 | 19 | 0.0 | 3.0 | 0.00 | 0.00 | 0.00 | 64 | 1017.0 |
| 20260904061507 | 50 | 40 | 0.0 | 6.0 | 0.00 | 0.00 | 0.00 | 60 | 1016.8 |
| 20260904060014 | 51 | 19 | 1.0 | 4.0 | 0.00 | 0.00 | 0.00 | 58 | 1016.7 |
| 20260904054513 | 51 | 36 | 1.0 | 3.0 | 0.00 | 0.00 | 0.00 | 59 | 1016.6 |
| 20260904053013 | 52 | 20 | 0.0 | 2.0 | 0.00 | 0.00 | 0.00 | 61 | 1016.5 |
| 20260904051512 | 52 | 42 | 1.0 | 4.0 | 0.00 | 0.00 | 0.00 | 59 | 1016.5 |
| 20260904050020 | 52 | 36 | 0.0 | 4.0 | 0.00 | 0.00 | 0.00 | 60 | 1016.5 |
| 20260904044512 | 53 | 60 | 5.0 | 7.0 | 0.00 | 0.00 | 0.00 | 55 | 1016.5 |
| 20260904043014 | 53 | 38 | 4.0 | 8.0 | 0.00 | 0.00 | 0.00 | 55 | 1016.4 |
| 20260904041508 | 53 | 51 | 2.0 | 7.0 | 0.00 | 0.00 | 0.00 | 55 | 1016.7 |
| 20260904040007 | 54 | 80 | 3.0 | 7.0 | 0.00 | 0.00 | 0.00 | 54 | 1016.5 |
| 20260904034502 | 55 | 75 | 4.0 | 7.0 | 0.00 | 0.00 | 0.00 | 53 | 1016.5 |
| 20260904033005 | 55 | 49 | 1.0 | 5.0 | 0.00 | 0.00 | 0.00 | 54 | 1016.8 |
| 20260904031606 | 56 | 19 | 1.0 | 3.0 | 0.00 | 0.00 | 0.00 | 54 | 1016.7 |
| 20260904030100 | 56 | 96 | 2.0 | 5.0 | 0.00 | 0.00 | 0.00 | 53 | 1016.4 |
| 20260904024602 | 56 | 51 | 1.0 | 5.0 | 0.00 | 0.00 | 0.00 | 52 | 1016.5 |
| 20260904023105 | 57 | 84 | 2.0 | 5.0 | 0.00 | 0.00 | 0.00 | 51 | 1016.6 |
| 20260904021600 | 57 | 42 | 0.0 | 2.0 | 0.00 | 0.00 | 0.00 | 53 | 1016.7 |
| 20260904014618 | 57 | 91 | 1.0 | 3.0 | 0.00 | 0.00 | 0.00 | 52 | 1017.0 |
| 20260904013118 | 57 | 64 | 1.0 | 3.0 | 0.00 | 0.00 | 0.00 | 49 | 1017.2 |
| 20260904011556 | 57 | 59 | 0.0 | 5.0 | 0.00 | 0.00 | 0.00 | 47 | 1017.4 |
| 20260904010113 | 58 | 73 | 3.0 | 6.0 | 0.00 | 0.00 | 0.00 | 46 | 1017.4 |
| 20260904004553 | 58 | 67 | 3.0 | 5.0 | 0.00 | 0.00 | 0.00 | 48 | 1017.4 |
| 20260904003057 | 57 | 74 | 2.0 | 5.0 | 0.00 | 0.00 | 0.00 | 49 | 1017.4 |
| 20260904001548 | 57 | 38 | 1.0 | 5.0 | 0.00 | 0.00 | 0.00 | 49 | 1017.7 |
| 20260904000049 | 56 | 107 | 0.0 | 4.0 | 0.00 | 0.00 | 0.00 | 46 | 1017.7 |
| 20260903234547 | 57 | 115 | 1.0 | 5.0 | 0.00 | 0.00 | 0.00 | 47 | 1017.6 |
| 20260903233045 | 56 | 97 | 2.0 | 5.0 | 0.00 | 0.00 | 0.00 | 48 | 1017.9 |
| 20260903231541 | 56 | 85 | 2.0 | 5.0 | 0.00 | 0.00 | 0.00 | 46 | 1018.4 |
| 20260903230037 | 56 | 91 | 3.0 | 5.0 | 0.00 | 0.00 | 0.00 | 49 | 1018.4 |